AMC-10 (GE-10)

Last updated on Fri Mar 01 2019 03:08:05 GMT+0000 (Coordinated Universal Time)

1 28154U 04003A 19058.86548247 -.00000204 00000-0 00000+0 0 9990 2 28154 0.1885 33.3948 0003298 317.3258 292.6186 0.99124571 55197
UTC large
Height (km)
Speed (km/s)
/
Latitude / Longitude
Inclination (degrees)
Orbital Period (minutes)
Azimuth
Elevation
Range (km)
Doppler Factor

Next 0 passes for location: London (51.5072 / 0.1276)

Sorry there are no passes over London.